TimeCST,TemperatureF,Dew PointF,Humidity,Sea Level PressureIn,VisibilityMPH,Wind Direction,Wind SpeedMPH,Gust SpeedMPH,PrecipitationIn,Events,Conditions,WindDirDegrees,DateUTC
12:00 AM,3.2,1.4,92,30.01,0.5,North,3.5,-,N/A,Fog,Light Freezing Fog,360,2013-01-05 06:00:00
12:53 AM,3.9,1.0,88,30.06,0.5,Calm,Calm,-,N/A,Fog,Light Freezing Fog,0,2013-01-05 06:53:00
1:06 AM,3.2,1.4,92,29.98,0.2,SE,3.5,-,N/A,Fog,Light Freezing Fog,130,2013-01-05 07:06:00
1:53 AM,3.0,1.0,91,30.04,0.2,Calm,Calm,-,N/A,Fog,Light Freezing Fog,0,2013-01-05 07:53:00
2:29 AM,1.4,-0.4,92,29.98,0.5,NW,3.5,-,N/A,Fog,Light Freezing Fog,320,2013-01-05 08:29:00
2:53 AM,1.9,-2.0,83,30.02,0.2,North,3.5,-,N/A,Fog,Light Freezing Fog,10,2013-01-05 08:53:00
3:32 AM,1.4,-0.4,92,29.96,0.8,Calm,Calm,-,N/A,,Mist,0,2013-01-05 09:32:00
3:39 AM,1.4,-2.2,85,29.97,1.5,West,3.5,-,N/A,,Overcast,270,2013-01-05 09:39:00
3:45 AM,1.4,-0.4,92,29.96,3.0,West,3.5,-,N/A,,Overcast,270,2013-01-05 09:45:00
3:53 AM,1.9,-0.9,88,30.02,4.0,West,4.6,-,N/A,,Overcast,280,2013-01-05 09:53:00
4:02 AM,1.4,-0.4,92,29.96,2.0,Calm,Calm,-,N/A,,Overcast,0,2013-01-05 10:02:00
4:26 AM,3.2,-0.4,85,29.94,1.0,West,3.5,-,N/A,,Mist,270,2013-01-05 10:26:00
4:30 AM,3.2,-0.4,85,29.94,0.8,West,4.6,-,N/A,,Mist,270,2013-01-05 10:30:00
4:53 AM,3.0,-0.0,87,29.99,0.5,Calm,Calm,-,N/A,Fog,Light Freezing Fog,0,2013-01-05 10:53:00
5:10 AM,1.4,-2.2,85,29.92,1.0,NNE,3.5,-,N/A,,Mist,20,2013-01-05 11:10:00
5:35 AM,1.4,-2.2,85,29.93,3.0,NNW,4.6,-,N/A,,Mist,340,2013-01-05 11:35:00
5:46 AM,1.4,-2.2,85,29.94,7.0,WNW,5.8,-,N/A,,Overcast,290,2013-01-05 11:46:00
5:53 AM,1.9,-2.0,83,29.99,8.0,NW,3.5,-,N/A,,Scattered Clouds,310,2013-01-05 11:53:00
6:53 AM,1.9,-2.0,83,30.00,10.0,NNW,6.9,-,N/A,,Clear,330,2013-01-05 12:53:00
7:03 AM,1.4,-2.2,85,29.94,10.0,NNW,9.2,-,N/A,,Scattered Clouds,340,2013-01-05 13:03:00
7:11 AM,3.2,-0.4,85,29.94,7.0,NNW,11.5,-,N/A,,Mostly Cloudy,340,2013-01-05 13:11:00
7:53 AM,3.9,-0.0,84,30.02,8.0,NNW,8.1,-,N/A,,Overcast,330,2013-01-05 13:53:00
8:27 AM,3.2,-0.4,85,29.95,10.0,North,11.5,-,N/A,,Scattered Clouds,350,2013-01-05 14:27:00
8:53 AM,3.9,-0.0,84,30.02,10.0,North,9.2,-,N/A,,Scattered Clouds,360,2013-01-05 14:53:00
9:53 AM,7.0,3.0,84,30.05,7.0,North,11.5,-,N/A,,Mostly Cloudy,350,2013-01-05 15:53:00
10:50 AM,10.4,6.8,85,30.00,8.0,North,17.3,-,0.00,,Mostly Cloudy,350,2013-01-05 16:50:00
10:53 AM,10.0,6.1,84,30.06,9.0,North,17.3,-,0.00,,Mostly Cloudy,350,2013-01-05 16:53:00
11:53 AM,12.9,6.1,74,30.06,10.0,North,19.6,-,N/A,,Mostly Cloudy,360,2013-01-05 17:53:00
12:53 PM,14.0,8.1,77,30.06,10.0,North,20.7,-,N/A,,Scattered Clouds,350,2013-01-05 18:53:00
1:53 PM,15.1,9.0,77,30.06,10.0,NNW,16.1,-,N/A,,Mostly Cloudy,340,2013-01-05 19:53:00
2:53 PM,15.1,9.0,77,30.07,10.0,North,19.6,-,N/A,,Mostly Cloudy,350,2013-01-05 20:53:00
3:53 PM,14.0,6.1,71,30.12,10.0,NNW,15.0,-,N/A,,Scattered Clouds,340,2013-01-05 21:53:00
4:53 PM,10.9,3.9,73,30.12,10.0,NNW,9.2,-,N/A,,Scattered Clouds,330,2013-01-05 22:53:00
5:53 PM,8.1,1.9,76,30.14,10.0,WNW,6.9,-,N/A,,Partly Cloudy,300,2013-01-05 23:53:00
6:20 PM,10.4,3.2,73,30.08,10.0,NW,6.9,-,N/A,,Mostly Cloudy,320,2013-01-06 00:20:00
6:53 PM,12.9,6.1,74,30.16,10.0,NW,9.2,-,N/A,,Overcast,310,2013-01-06 00:53:00
7:53 PM,12.0,7.0,80,30.14,10.0,Calm,Calm,-,N/A,,Overcast,0,2013-01-06 01:53:00
8:53 PM,15.1,10.9,84,30.13,10.0,Calm,Calm,-,N/A,,Overcast,0,2013-01-06 02:53:00
9:15 PM,15.8,10.4,79,30.06,10.0,West,4.6,-,N/A,,Overcast,260,2013-01-06 03:15:00
9:53 PM,18.0,12.9,81,30.12,10.0,West,3.5,-,N/A,,Overcast,270,2013-01-06 03:53:00
10:04 PM,17.6,12.2,79,30.06,10.0,Calm,Calm,-,N/A,,Overcast,0,2013-01-06 04:04:00
10:53 PM,18.0,12.9,81,30.12,10.0,SW,3.5,-,N/A,,Overcast,220,2013-01-06 04:53:00
11:53 PM,18.0,12.9,81,30.10,10.0,South,5.8,-,0.00,Snow,Light Snow,180,2013-01-06 05:53:00